Vertical_Velocity
-3 -0 -0 1 -1 -3 -3 -1 -1 -3 -2 -1 0 -4 -3 -5 0 -2 -5 -8 -9 1 -1 0 -2 -0 -0 -4 5 3 12 -6 -14 8 20 17 6 -11 -19 -5 -10 -11 -7 5 23
-2 -4 -0 -2 -1 -1 -2 -1 -4 -2 -2 -2 0 -3 -2 -5 -3 5 -12 2 -0 -3 -4 4 -1 2 -2 -5 -7 8 5 -7 -15 19 -12 -10 -2 11 1 -6 10 -3 16 -16 2
1 -2 -4 -1 -0 -2 -1 1 -2 -2 -2 -1 -2 -2 -2 -2 -6 -6 -4 1 3 -2 -2 1 -1 3 -3 4 -4 -4 -10 -1 -18 -3 24 5 0 -0 -1 -3 10 3 9 9 1
-3 -2 -2 -2 -3 -3 0 -1 -1 -2 -0 -2 -1 -0 -3 -1 2 -3 1 -2 -4 3 -1 4 1 -6 2 -1 -3 8 5 4 -14 -9 -8 -2 18 -8 1 -6 -4 -13 28 -5 -8
-1 -2 -6 0 -1 -2 -1 -2 -0 0 1 -4 -1 -5 0 -4 -10 13 -3 3 -0 -1 2 5 -3 3 -1 2 -3 9 -2 1 -1 3 -15 12 -5 -1 -2 1 -1 -14 27 -5 -2
-5 -1 -1 -2 -4 1 -2 -2 -1 -0 0 0 -0 -4 -1 -12 -5 6 -3 -4 3 -2 5 4 0 2 3 1 10 -2 21 16 5 -2 -2 3 -0 23 4 2 -2 20 -10 -3 -6
-5 -4 -1 -2 -2 -4 -1 -3 -1 -0 0 -0 -1 -6 -1 -4 -7 -2 -2 2 0 1 -2 0 -2 10 15 2 -6 -5 -4 -7 -8 -3 -13 5 -10 -7 -18 3 -4 6 -6 -6 9
-2 -1 -6 -4 -3 -4 -2 -1 1 -2 -2 -1 0 -4 -20 -4 -2 -0 -1 -1 0 -0 -5 6 6 10 1 3 -9 13 5 -0 -6 -2 -24 22 -29 -7 13 11 9 -21 -5 -6 2
-4 -1 -2 -3 -3 -4 -2 -1 -0 -5 -2 -5 -2 2 -15 -8 -1 -2 0 2 1 -1 3 3 3 -7 2 2 2 -6 -7 -1 -9 9 21 5 -6 -22 55 -5 -4 -5 -10 -5 -7
-4 -3 -2 -0 -5 -1 -5 -2 4 -5 -5 -4 0 -1 7 0 -0 1 2 -2 1 3 2 -1 -6 -3 5 6 -15 -6 3 -3 -8 -26 9 5 1 -7 -2 29 -9 -7 -7 18 11
-6 -2 -4 -5 5 -6 1 -6 8 -22 -1 -4 3 -8 10 2 -6 -9 2 0 3 2 -6 -4 -2 -10 -9 -5 -9 4 8 3 -1 18 47 9 22 -4 -2 13 40 44 -1 -12 14
-5 -1 1 3 -4 -3 -7 1 -8 1 -26 2 -5 -17 -10 11 -14 -7 6 5 3 -4 3 13 -18 -3 1 4 5 5 -6 -12 -10 -9 22 2 1 -16 -3 -2 -3 -10 9 25 8
-1 -1 -4 4 -2 -1 -1 2 -3 3 -9 -19 0 -17 7 -3 -5 2 3 -1 -1 7 2 -5 -14 6 -3 -3 5 0 4 -1 -3 -2 -2 4 -1 -18 -17 -20 -14 -17 19 21 14
-3 -4 -2 6 -4 6 -2 -4 4 -4 -7 -25 -18 -16 -5 3 -18 2 4 3 -2 -11 14 -9 0 -6 30 1 5 12 3 -0 4 6 1 20 -17 -4 4 10 50 3 -1 4 -6
-1 -0 -1 6 7 6 -4 -3 3 -0 5 14 6 -6 -7 -4 2 -3 1 7 -3 1 11 -46 -2 -4 -2 -7 14 -31 10 10 9 -5 3 -24 33 -39 4 -6 -27 11 0 -14 -8
3 4 -4 11 6 6 5 3 5 2 -10 -2 14 -1 6 -1 -0 11 -3 -1 6 1 -2 1 8 24 -9 -9 -7 -3 25 2 -5 5 15 -17 31 -27 -2 -14 16 16 6 -1 30
-5 3 2 -1 1 9 4 6 7 3 -1 -8 -2 -5 -0 15 -3 3 -2 -0 -3 5 -1 1 -18 -10 18 3 3 6 9 1 11 12 -10 -9 19 -30 -20 5 31 -5 -13 -15 7
-5 -3 8 4 1 6 2 4 14 -7 -17 -0 -17 -5 8 7 -8 3 6 2 -6 4 5 6 2 -7 -19 -16 -14 3 -4 -6 -5 -1 -7 3 -2 -47 -24 1 19 5 27 1 -8
-3 -1 1 7 5 4 -1 8 -16 -6 10 -9 -18 6 -7 15 -18 5 -2 6 21 -5 14 7 -9 -2 -12 11 3 -6 12 -29 12 10 0 -7 -23 -6 8 12 28 -11 -17 20 -5
0 1 -3 5 11 6 1 -19 5 -0 -2 -4 2 6 10 33 8 -3 19 8 -11 -8 -2 0 -2 19 -9 24 -12 8 7 17 -0 5 -0 -4 -8 1 -15 -4 7 -8 18 2 1
-3 0 5 -0 5 6 -16 -8 -9 -15 10 2 1 -5 -4 23 -34 28 9 14 -0 7 -3 9 5 -15 16 -4 -2 3 -7 11 20 5 -0 -1 -2 -0 -23 2 21 -10 38 26 31
-1 7 2 10 5 -2 -8 1 -5 8 8 -7 -11 0 -1 -0 4 4 19 3 9 -6 -1 5 -2 5 -6 26 22 16 5 -3 17 -11 -1 0 -13 -49 17 -59 26 -0 2 21 -15
-7 -4 11 14 6 -5 -5 -5 -3 11 -7 5 -6 -10 -4 10 3 -6 11 2 -2 3 1 -8 0 -3 2 -1 -5 -2 -9 19 -9 4 -12 10 -20 32 65 -40 9 -9 -10 6 14
10 -2 2 5 4 3 23 -3 -7 -1 -2 0 -1 14 16 8 1 -15 13 -0 -16 -0 -0 2 -6 7 5 7 1 17 17 5 5 4 -9 -13 -2 -33 -21 19 -12 7 -13 -1 -1
3 -13 12 29 -5 -10 8 9 3 9 -14 3 -14 -4 7 0 -1 -7 7 -10 8 -0 -7 -6 -9 -5 4 1 -1 -3 -3 -7 -2 -2 5 -12 6 19 48 1 2 4 1 -8 -2
0 3 -1 -6 6 19 -1 -12 -0 -10 44 -10 -5 -4 -10 5 -6 -12 11 21 -2 3 -1 9 -4 -4 -11 -8 -2 -3 -4 -1 2 -1 3 -0 -22 -5 -11 -9 -4 -1 -1 -6 -15
4 1 0 -1 1 12 -3 0 -5 3 -3 -5 22 -10 12 8 42 9 31 0 -6 4 12 3 -5 5 -11 -4 -1 3 -10 -6 -5 -3 -4 1 -10 -10 -16 -21 4 -4 5 13 22
Height
3112 3110 3109 3108 3107 3106 3106 3106 3105 3104 3103 3103 3102 3102 3101 3100 3102 3102 3101 3102 3101 3104 3104 3106 3107 3108 3108 3109 3112 3115 3116 3111 3110 3108 3107 3106 3105 3105 3105 3106 3105 3104 3103 3101 3096
3108 3106 3105 3104 3103 3102 3100 3100 3100 3099 3098 3098 3097 3097 3094 3093 3095 3096 3097 3097 3098 3099 3100 3102 3103 3104 3104 3106 3108 3111 3109 3106 3107 3106 3105 3104 3104 3103 3104 3103 3102 3101 3101 3098 3095
3103 3102 3101 3100 3098 3097 3096 3094 3094 3094 3094 3092 3092 3092 3089 3087 3091 3087 3090 3091 3092 3094 3096 3097 3098 3100 3100 3103 3105 3106 3101 3104 3103 3101 3103 3102 3101 3100 3099 3099 3099 3098 3097 3095 3092
3099 3097 3096 3095 3094 3093 3091 3089 3088 3088 3089 3088 3086 3085 3085 3084 3091 3084 3085 3085 3087 3088 3089 3091 3093 3096 3098 3099 3101 3102 3100 3100 3100 3100 3098 3097 3097 3096 3095 3094 3094 3093 3093 3089 3088
3094 3093 3091 3089 3089 3088 3087 3086 3084 3083 3083 3083 3082 3079 3080 3078 3083 3078 3081 3082 3083 3084 3084 3086 3087 3092 3093 3096 3097 3097 3097 3096 3096 3095 3093 3093 3092 3091 3088 3089 3089 3089 3088 3084 3084
3088 3087 3086 3085 3083 3082 3080 3080 3080 3078 3077 3077 3075 3074 3073 3072 3075 3076 3074 3075 3077 3079 3081 3082 3085 3089 3090 3092 3092 3092 3092 3091 3090 3090 3089 3088 3086 3087 3082 3084 3084 3084 3082 3081 3079
3083 3081 3080 3079 3078 3076 3075 3075 3074 3074 3072 3072 3070 3067 3065 3071 3068 3069 3068 3070 3071 3072 3075 3078 3082 3085 3087 3086 3087 3086 3085 3083 3082 3083 3083 3083 3079 3079 3078 3078 3079 3079 3079 3077 3077
3078 3075 3074 3073 3072 3071 3070 3069 3068 3068 3068 3066 3065 3062 3056 3063 3062 3063 3062 3063 3065 3066 3068 3072 3076 3078 3080 3082 3081 3081 3079 3075 3075 3078 3076 3077 3071 3074 3075 3071 3074 3074 3073 3074 3073
3072 3070 3068 3067 3064 3064 3064 3064 3062 3061 3061 3060 3060 3057 3052 3054 3054 3055 3056 3057 3058 3061 3063 3065 3067 3069 3074 3075 3076 3076 3072 3071 3069 3072 3071 3071 3069 3070 3071 3070 3070 3071 3071 3069 3068
3063 3063 3062 3060 3058 3056 3056 3055 3056 3052 3052 3053 3053 3053 3050 3049 3049 3050 3052 3052 3053 3055 3058 3059 3061 3062 3065 3070 3065 3071 3068 3066 3064 3064 3064 3064 3064 3066 3067 3067 3066 3065 3066 3067 3065
3054 3054 3054 3052 3052 3050 3049 3047 3050 3046 3042 3045 3047 3044 3045 3045 3043 3046 3048 3047 3048 3049 3051 3053 3055 3051 3058 3062 3065 3066 3063 3061 3061 3061 3062 3059 3059 3060 3062 3062 3063 3063 3060 3061 3062
3046 3045 3046 3045 3045 3043 3042 3041 3040 3039 3032 3034 3035 3034 3037 3038 3033 3038 3043 3044 3044 3043 3048 3052 3042 3050 3055 3058 3060 3060 3059 3057 3057 3057 3056 3054 3053 3054 3055 3055 3056 3057 3058 3057 3057
3038 3037 3038 3040 3038 3037 3036 3038 3034 3032 3027 3021 3028 3027 3028 3029 3026 3028 3033 3034 3038 3040 3042 3042 3041 3046 3048 3052 3053 3052 3052 3055 3056 3056 3053 3052 3048 3048 3048 3048 3048 3048 3052 3054 3052
3028 3028 3029 3032 3033 3030 3031 3031 3030 3029 3027 3016 3017 3016 3018 3019 3018 3020 3023 3028 3031 3032 3037 3036 3040 3042 3042 3043 3047 3045 3050 3052 3053 3056 3050 3050 3039 3040 3041 3039 3039 3041 3045 3047 3050
3018 3019 3020 3022 3024 3024 3026 3023 3028 3029 3028 3017 3013 3012 3013 3016 3016 3015 3015 3018 3020 3027 3033 3025 3032 3035 3037 3038 3042 3042 3045 3047 3049 3050 3051 3044 3041 3034 3035 3035 3034 3035 3037 3039 3042
3007 3010 3011 3015 3015 3018 3019 3021 3025 3031 3019 3013 3009 3008 3011 3009 3011 3013 3012 3014 3018 3021 3023 3022 3028 3030 3031 3034 3035 3040 3040 3043 3045 3046 3041 3041 3039 3029 3030 3029 3029 3031 3032 3035 3038
3001 3002 3003 3006 3008 3011 3011 3018 3025 3020 3011 3008 3005 3006 3007 3007 3007 3009 3010 3011 3013 3016 3016 3018 3018 3022 3026 3028 3029 3034 3037 3039 3040 3038 3032 3032 3030 3024 3023 3025 3026 3027 3028 3032 3033
2997 2996 2997 2999 3003 3005 3008 3016 3013 3004 3004 3004 3003 3002 3003 3004 3005 3006 3007 3007 3008 3011 3012 3012 3012 3014 3019 3021 3023 3025 3030 3030 3029 3029 3025 3024 3018 3016 3018 3020 3023 3024 3027 3026 3030
2989 2991 2993 2996 2998 3001 3006 3006 2999 3001 3002 3001 2999 3000 3001 3001 3002 3003 3002 3003 3005 3007 3010 3008 3002 3005 3009 3015 3018 3021 3021 3027 3024 3025 3031 3024 3018 3013 3015 3016 3018 3021 3024 3026 3026
2986 2987 2988 2992 2994 2998 2999 2993 2996 2996 3000 3000 3000 2999 2998 2997 2996 2999 2998 2997 2999 3003 3006 3006 3004 2999 3003 3009 3012 3014 3019 3022 3022 3021 3020 3015 3019 3016 3017 3015 3017 3019 3021 3023 3025
2985 2984 2986 2987 2990 2992 2988 2990 2993 2993 2998 2999 2999 3000 2998 2997 2995 2995 2995 2995 2997 3001 3002 3004 3004 3003 3001 3002 3007 3011 3011 3014 3016 3016 3013 3012 3016 3018 3015 3015 3012 3016 3017 3020 3022
2983 2983 2984 2983 2987 2985 2984 2990 2993 2993 2996 2996 2997 2998 2998 2997 2996 2994 2993 2993 2991 2996 2999 3001 3001 3000 3001 3001 3004 3004 3007 3010 3011 3011 3010 3011 3008 3012 3018 3013 3014 3015 3016 3018 3019
2979 2980 2980 2982 2981 2983 2985 2986 2988 2990 2991 2993 2995 2996 2997 2998 2999 2996 2994 2993 2995 2998 2997 2999 3002 3000 2995 2999 3001 3002 3003 3004 3007 3010 3007 3010 3011 3012 3010 3016 3014 3014 3013 3014 3018
2978 2978 2978 2978 2979 2980 2980 2982 2984 2986 2988 2990 2992 2994 2995 2995 2996 2996 2996 2997 2997 2998 2998 3000 3000 3001 3000 3002 3002 3000 3000 3001 3003 3005 3006 3004 3007 3010 3006 3011 3014 3014 3013 3012 3015
2973 2974 2977 2974 2975 2977 2979 2978 2980 2982 2985 2987 2988 2989 2991 2994 2994 2994 2996 2998 2998 2997 2997 2999 3000 3001 2997 3001 3002 3002 3001 3001 3001 3002 3002 3002 3002 3004 3006 3007 3008 3008 3009 3011 3012
2970 2973 2976 2974 2975 2974 2975 2977 2979 2979 2982 2983 2984 2986 2988 2988 2991 2994 2995 2993 2994 2996 2995 2997 2998 2999 2997 2997 2998 2998 2998 2999 2999 3000 3001 3002 3000 3001 3002 3003 3004 3006 3008 3009 3010
2967 2970 2971 2969 2970 2973 2973 2974 2976 2978 2978 2977 2981 2982 2983 2985 2986 2988 2989 2987 2989 2991 2992 2994 2996 2997 2994 2995 2995 2992 2990 2992 2994 2996 2997 2996 2997 3000 3000 3000 3002 3001 3002 3004 3007